[[{"header":{"parameterUnit":"m.s-1","parameterCategory":1,"la1":30.2991,"la2":30.254,"lo1":-89.0895,"lo2":-89.0444,"dy":0.0017,"dx":0.0017,"nx":28,"ny":28,"refTime":"2025-08-25T03:00:00:Z","depth":0,"parameterNumber":2,"parameterNumberName":"U-component_of_WINDS"},"data":[0,0,0,0,0,0,0,0,0,0,0,0,0,0,0,0,0,0,0,0,0,0,0,0,0,0,0,0,0,0,0,0,0,0,0,0,0,0,0,0,0,0,0,0,0,0,0,0,0,0,0,0,0,0,0,0,0,0,-0.3273,-0.3273,0,-0.3261,-0.3261,-0.3261,-0.3265,-0.3266,-0.3266,-0.3266,-0.3253,-0.3253,-0.3252,0,0,0,0,0,0,0,0,0,0,0,0,0,-0.3301,-0.33,-0.3273,-0.3273,-0.3273,-0.3261,-0.3261,-0.3261,-0.3265,-0.3266,-0.3266,-0.3266,-0.3254,-0.3253,-0.3252,0,0,0,0,0,0,0,0,0,0,0,0,0,-0.3289,-0.33,-0.3273,-0.3274,-0.3274,-0.3261,-0.3261,-0.326,-0.3265,-0.3266,-0.3266,-0.3267,-0.3254,-0.3253,-0.3252,-0.3238,0,0,-0.3249,-0.3249,0,0,0,0,0,0,0,0,-0.3289,-0.3288,-0.3274,-0.3274,-0.3274,-0.3265,-0.3266,-0.3253,-0.3265,-0.3268,-0.3266,-0.3267,-0.3257,-0.3256,-0.3252,-0.3237,-0.3237,-0.3249,-0.3249,-0.3248,-0.3248,0,0,0,0,0,0,0,-0.329,-0.3288,-0.3268,-0.3274,-0.3273,-0.3275,-0.3273,-0.3263,-0.326,-0.3268,-0.3269,-0.3267,-0.3257,-0.3253,-0.3252,-0.3236,-0.3249,-0.3248,-0.3248,-0.3247,-0.321,-0.3209,0,0,0,0,0,0,-0.3291,-0.3289,-0.3269,-0.3268,-0.3283,-0.3274,-0.3272,-0.3267,-0.326,-0.326,-0.3267,-0.3267,-0.3255,-0.3253,-0.3252,-0.3235,-0.3248,-0.3247,-0.3247,-0.321,-0.321,-0.3209,0,0,0,0,0,0,-0.3291,-0.3289,-0.3269,-0.3278,-0.3276,-0.3273,-0.3267,-0.3267,-0.3263,-0.3259,-0.3259,-0.3264,-0.3255,-0.3253,-0.3241,-0.3235,-0.3247,-0.3246,-0.3211,-0.321,-0.3209,-0.3201,0,0,0,0,0,0,-0.3292,-0.3289,-0.3284,-0.3278,-0.3275,-0.3259,-0.3267,-0.3266,-0.3262,-0.3263,-0.3256,-0.3256,-0.3255,-0.3243,-0.3241,-0.3234,-0.3245,-0.3211,-0.321,-0.321,-0.3202,-0.3201,-0.3199,0,0,0,0,0,-0.3293,-0.3282,-0.3283,-0.3281,-0.3268,-0.3258,-0.3257,-0.3256,-0.3261,-0.3256,-0.3253,-0.3256,-0.3236,-0.3242,-0.3239,-0.3232,-0.3212,-0.3211,-0.321,-0.3203,-0.3201,-0.3199,0,0,0,0,0,0,-0.3286,-0.3281,-0.3283,-0.3269,-0.3264,-0.3259,-0.3252,-0.3254,-0.3248,-0.3249,-0.3248,-0.3247,-0.3235,-0.3232,-0.3239,-0.3218,-0.3225,-0.3223,-0.322,-0.3218,-0.3217,-0.3218,-0.3245,0,0,0,0,0,-0.3283,-0.3275,-0.3271,-0.3259,-0.3257,-0.3255,-0.325,-0.3251,-0.3246,-0.3244,-0.324,-0.3235,-0.3228,-0.3223,-0.3216,-0.3202,-0.3201,-0.3196,-0.3194,-0.3193,-0.3192,-0.3185,-0.3183,-0.3206,-0.3206,-0.3206,0,0,-0.3276,-0.3272,-0.3267,-0.3258,-0.3254,-0.3246,-0.3253,-0.3244,-0.3239,-0.3242,-0.3231,-0.3229,-0.3223,-0.3211,-0.3205,-0.3208,-0.3185,-0.3192,-0.3191,-0.319,-0.3184,-0.3182,-0.318,-0.3205,-0.3205,-0.3205,0,0,-0.3259,-0.3256,-0.3246,-0.3242,-0.3237,-0.3236,-0.3234,-0.3229,-0.3227,-0.3216,-0.3219,-0.3213,-0.32,-0.3196,-0.3192,-0.3176,-0.3178,-0.3173,-0.3165,-0.3158,-0.3157,-0.3155,-0.315,-0.3148,-0.3172,-0.3172,-0.3172,0,-0.3252,-0.324,-0.3241,-0.3232,-0.3228,-0.3231,-0.3222,-0.3218,-0.3211,-0.3208,-0.3211,-0.3196,-0.3193,-0.3179,-0.3176,-0.3172,-0.317,-0.3174,-0.3157,-0.3155,-0.3154,-0.3149,-0.3147,-0.3172,-0.3172,-0.3172,-0.3172,0,-0.3231,-0.3223,-0.3216,-0.3209,-0.3204,-0.3195,-0.3194,-0.319,-0.3191,-0.3189,-0.3179,-0.3175,-0.3167,-0.3164,-0.3165,-0.3151,-0.3154,-0.3157,-0.3163,-0.3151,-0.3146,-0.3144,-0.3171,-0.3171,-0.3171,-0.3171,0,0,-0.3209,-0.3203,-0.3201,-0.3198,-0.3193,-0.3187,-0.3178,-0.3171,-0.3167,-0.3162,-0.3155,-0.3145,-0.3148,-0.3144,-0.3145,-0.3139,-0.3127,-0.3143,-0.3143,-0.314,-0.3112,-0.311,-0.3107,-0.3128,-0.3128,-0.3128,-0.3113,0,-0.3192,-0.3177,-0.3178,-0.3164,-0.3157,-0.3161,-0.3153,-0.315,-0.3148,-0.3142,-0.3141,-0.3134,-0.3139,-0.3137,-0.3131,-0.3129,-0.3121,-0.313,-0.3122,-0.3122,-0.3123,-0.3105,-0.3102,-0.3088,-0.3111,-0.3111,-0.311,0,-0.3171,-0.3166,-0.3151,-0.3148,-0.3145,-0.3138,-0.3133,-0.3127,-0.3123,-0.3122,-0.3118,-0.312,-0.3112,-0.3119,-0.3107,-0.3114,-0.311,-0.3109,-0.3108,-0.3108,-0.3115,-0.3104,-0.3083,-0.3081,-0.3107,-0.3107,-0.3108,0,-0.3157,-0.3146,-0.3136,-0.3134,-0.313,-0.3125,-0.3123,-0.3119,-0.3116,-0.3111,-0.3108,-0.3102,-0.3099,-0.3095,-0.3095,-0.31,-0.3083,-0.309,-0.3083,-0.3083,-0.3079,-0.3079,-0.3058,-0.3077,-0.3077,-0.3077,-0.3077,0,-0.3138,-0.3129,-0.313,-0.3124,-0.3114,-0.3115,-0.3106,-0.3104,-0.3101,-0.3095,-0.3098,-0.3092,-0.3093,-0.3087,-0.3087,-0.3078,-0.3077,-0.3076,-0.3076,-0.3076,-0.3076,-0.3074,-0.3075,-0.3076,-0.3077,-0.3077,-0.3077,0,-0.3121,-0.3121,-0.311,-0.3108,-0.3107,-0.31,-0.3097,-0.3092,-0.3091,-0.3084,-0.3082,-0.3081,-0.3075,-0.3075,-0.3067,-0.3067,-0.3056,-0.3057,-0.3057,-0.3058,-0.3051,-0.3051,-0.3027,-0.3025,-0.3045,-0.3045,-0.3044,0,-0.3109,-0.3102,-0.3099,-0.3095,-0.3093,-0.3087,-0.3084,-0.3085,-0.3081,-0.3077,-0.3072,-0.3065,-0.3061,-0.305,-0.3049,-0.3043,-0.3044,-0.3036,-0.3043,-0.3043,-0.3044,-0.3045,-0.3044,-0.3035,-0.3035,-0.3034,-0.3034,0,-0.3088,-0.3089,-0.3084,-0.3079,-0.3074,-0.307,-0.3067,-0.3064,-0.3064,-0.306,-0.3054,-0.305,-0.3043,-0.3037,-0.3031,-0.3029,-0.3032,-0.3032,-0.303,-0.303,-0.303,-0.303,-0.3054,-0.3033,-0.3033,-0.3033,-0.3033,-0.3033,-0.3073,-0.3068,-0.3065,-0.3059,-0.3057,-0.3054,-0.3049,-0.3048,-0.3043,-0.3037,-0.3038,-0.3031,-0.3028,-0.3022,-0.3019,-0.3014,-0.3017,-0.3014,-0.3013,-0.3012,-0.3012,-0.3031,-0.3013,-0.3013,-0.3013,-0.3013,-0.3013,0,-0.3053,-0.3052,-0.3047,-0.3042,-0.3037,-0.3041,-0.3037,-0.3033,-0.3027,-0.3024,-0.302,-0.3013,-0.3007,-0.3006,-0.3001,-0.2997,-0.2998,-0.2995,-0.2996,-0.2995,-0.3009,-0.3012,-0.2995,-0.2995,-0.2995,-0.2995,-0.2995,-0.2995,-0.3042,-0.3033,-0.3034,-0.3024,-0.3023,-0.3016,-0.3014,-0.3011,-0.3009,-0.3001,-0.2997,-0.2996,-0.2994,-0.2989,-0.2984,-0.2984,-0.2982,-0.2979,-0.2979,-0.2992,-0.2994,-0.2996,-0.2998,-0.2978,-0.2978,-0.2965,-0.2965,-0.2965]},{"header":{"parameterUnit":"m.s-1","parameterCategory":1,"la1":30.2991,"la2":30.254,"lo1":-89.0895,"lo2":-89.0444,"dy":0.0017,"dx":0.0017,"nx":28,"ny":28,"refTime":"2025-08-25T03:00:00:Z","depth":0,"parameterNumber":3,"parameterNumberName":"V-component_of_WINDS"},"data":[0,0,0,0,0,0,0,0,0,0,0,0,0,0,0,0,0,0,0,0,0,0,0,0,0,0,0,0,0,0,0,0,0,0,0,0,0,0,0,0,0,0,0,0,0,0,0,0,0,0,0,0,0,0,0,0,0,0,0.0359,0.0358,0,0.0275,0.0274,0.0274,0.0194,0.0193,0.0192,0.0191,0.0105,0.0103,0.0102,0,0,0,0,0,0,0,0,0,0,0,0,0,0.045,0.0449,0.0359,0.0358,0.0357,0.0276,0.0274,0.0273,0.0194,0.0193,0.0191,0.019,0.0105,0.0103,0.0102,0,0,0,0,0,0,0,0,0,0,0,0,0,0.0393,0.0448,0.036,0.0308,0.0302,0.0276,0.0274,0.0273,0.0194,0.0193,0.0191,0.019,0.0106,0.0104,0.0102,0.0119,0,0,0.0095,0.0095,0,0,0,0,0,0,0,0,0.0396,0.039,0.0316,0.0311,0.0305,0.0243,0.0275,0.0221,0.0194,0.0235,0.0191,0.0189,0.0152,0.0146,0.0134,0.0115,0.0112,0.0095,0.0094,0.0093,0.0093,0,0,0,0,0,0,0,0.04,0.0393,0.0326,0.0316,0.0309,0.0288,0.0279,0.0264,0.0203,0.0232,0.0226,0.0217,0.0149,0.0136,0.0131,0.011,0.0095,0.0093,0.0092,0.0091,0.0101,0.0103,0,0,0,0,0,0,0.0412,0.0397,0.0329,0.0324,0.0348,0.0288,0.0277,0.0265,0.0203,0.0192,0.0218,0.0213,0.014,0.0133,0.0128,0.0144,0.0093,0.0091,0.009,0.01,0.0102,0.0103,0,0,0,0,0,0,0.0415,0.0407,0.0332,0.0358,0.0347,0.0288,0.0275,0.0264,0.0251,0.0193,0.0182,0.0216,0.0139,0.0131,0.0122,0.014,0.009,0.0088,0.0098,0.01,0.0102,0.0177,0,0,0,0,0,0,0.0417,0.0408,0.0415,0.0359,0.0346,0.0328,0.0276,0.0263,0.0248,0.0241,0.0188,0.0178,0.0137,0.0125,0.012,0.0136,0.0087,0.0096,0.0099,0.0102,0.0173,0.0182,0.0189,0,0,0,0,0,0.0421,0.0439,0.0416,0.0408,0.0353,0.033,0.0322,0.0274,0.025,0.0255,0.0218,0.018,0.0139,0.0125,0.0118,0.0134,0.0095,0.0098,0.0102,0.0169,0.018,0.0189,0,0,0,0,0,0,0.0499,0.0431,0.0404,0.0405,0.0374,0.0316,0.0322,0.0287,0.0262,0.0257,0.0198,0.0187,0.0185,0.0158,0.0145,0.0148,0.0111,0.0114,0.0165,0.0175,0.0183,0.0189,0.0085,0,0,0,0,0,0.0516,0.0503,0.0444,0.045,0.0436,0.0382,0.037,0.0336,0.0301,0.0287,0.0249,0.0217,0.0196,0.0184,0.0162,0.0168,0.0155,0.0176,0.0184,0.0191,0.0194,0.0194,0.0203,0.0114,0.0114,0.0114,0,0,0.0552,0.0513,0.0508,0.0465,0.0437,0.0424,0.0371,0.036,0.035,0.0285,0.0275,0.0246,0.0205,0.0204,0.0202,0.0182,0.0215,0.0195,0.0201,0.02,0.0199,0.0207,0.0215,0.0116,0.0116,0.0116,0,0,0.061,0.0579,0.0581,0.0553,0.0511,0.0475,0.0475,0.0423,0.0401,0.0389,0.034,0.0327,0.0293,0.0266,0.0248,0.0295,0.0259,0.029,0.0333,0.0334,0.0341,0.0347,0.0363,0.037,0.0293,0.0293,0.0293,0,0.0659,0.0638,0.0586,0.0578,0.056,0.0501,0.0502,0.0477,0.043,0.0419,0.0398,0.0354,0.0322,0.0314,0.0325,0.0313,0.0311,0.0296,0.0344,0.035,0.0354,0.0369,0.0376,0.0297,0.0296,0.0296,0.0295,0,0.0701,0.0687,0.0693,0.0649,0.0631,0.0628,0.0575,0.0564,0.0531,0.0497,0.0486,0.0446,0.0415,0.041,0.0378,0.0397,0.0386,0.0355,0.0318,0.0368,0.0381,0.0386,0.0302,0.0301,0.03,0.0299,0,0,0.0806,0.0732,0.0736,0.0714,0.0663,0.0651,0.0644,0.0613,0.0605,0.0574,0.0567,0.0539,0.051,0.049,0.0454,0.0455,0.0495,0.0424,0.0422,0.0439,0.0512,0.0536,0.0543,0.047,0.0471,0.0472,0.0516,0,0.0855,0.084,0.0793,0.0792,0.0778,0.0721,0.0715,0.0682,0.065,0.0633,0.0597,0.0579,0.0542,0.0529,0.0528,0.049,0.0509,0.0486,0.0463,0.0462,0.0475,0.055,0.0575,0.0618,0.052,0.0521,0.0522,0,0.0911,0.0884,0.0881,0.0829,0.0822,0.0817,0.0785,0.077,0.0732,0.0708,0.0685,0.0645,0.0634,0.0599,0.0583,0.0569,0.0557,0.0536,0.0537,0.0533,0.0495,0.0548,0.0631,0.0638,0.0529,0.0529,0.0528,0,0.0988,0.095,0.0944,0.0927,0.0867,0.0865,0.084,0.08,0.0784,0.0756,0.0745,0.0716,0.07,0.0678,0.0631,0.061,0.062,0.0582,0.06,0.0602,0.0605,0.0606,0.0687,0.0597,0.0597,0.0597,0.0597,0,0.1048,0.1049,0.0977,0.0974,0.0972,0.0918,0.0918,0.0887,0.0852,0.0841,0.079,0.078,0.0719,0.0702,0.0665,0.0657,0.065,0.0631,0.0621,0.0635,0.0638,0.0626,0.0622,0.0599,0.0598,0.0598,0.0598,0,0.1134,0.1086,0.1075,0.1019,0.1004,0.1006,0.0957,0.0951,0.0915,0.0902,0.0896,0.084,0.0817,0.0768,0.0732,0.0707,0.0709,0.0691,0.0722,0.0716,0.0737,0.0736,0.0814,0.0821,0.0727,0.0728,0.0729,0,0.1175,0.1175,0.1118,0.1106,0.1083,0.1066,0.1049,0.0995,0.098,0.0936,0.0935,0.0909,0.0885,0.0851,0.0807,0.078,0.0761,0.079,0.0756,0.0771,0.0761,0.0762,0.0761,0.0798,0.0799,0.08,0.0801,0,0.1254,0.123,0.1209,0.1179,0.116,0.1134,0.1105,0.1099,0.1038,0.1023,0.0999,0.0981,0.0944,0.0918,0.0884,0.0857,0.0819,0.0812,0.0815,0.083,0.0847,0.0838,0.0742,0.0811,0.081,0.0809,0.0808,0.0808,0.1319,0.1315,0.1274,0.1252,0.1224,0.1198,0.1189,0.1152,0.1131,0.1097,0.1067,0.1046,0.1007,0.0956,0.0932,0.0915,0.0896,0.09,0.0901,0.0903,0.0909,0.085,0.0908,0.0908,0.0908,0.0907,0.0907,0,0.1395,0.1365,0.1345,0.1306,0.1288,0.1253,0.1219,0.1206,0.1189,0.1155,0.1133,0.1105,0.108,0.1034,0.1004,0.0999,0.0981,0.0993,0.0993,0.0987,0.0928,0.0928,0.1008,0.1008,0.1008,0.1008,0.1008,0.1008,0.1432,0.1424,0.1395,0.1373,0.1343,0.1322,0.1306,0.1281,0.1254,0.1226,0.1204,0.1174,0.1136,0.1103,0.1078,0.1065,0.1056,0.1074,0.1056,0.1001,0.0992,0.0983,0.0983,0.1073,0.1073,0.1116,0.1117,0.1117]}]]